Regional Weather Roundup
Issued by NWS Sioux Falls, SD

Home | Current Version | Previous Version | Graphics & Text | Print | Product List | Glossary Off
Versions: 1 2 3 4 5 6 7 8 9 10 11 12 13 14 15 16 17 18 19 20 21 22 23 24 25 26 27 28 29 30 31 32 33 34 35 36 37 38 39 40 41 42 43 44 45 46 47 48 49 50

000
ASUS43 KFSD 172010
RWRFSD

WEATHER ROUNDUP FOR SE SOUTH DAKOTA/SW MINNESOTA/NW IOWA
NATIONAL WEATHER SERVICE SIOUX FALLS SD
200 PM CST TUE JAN 17 2017

NOTE: "FAIR" INDICATES FEW OR NO CLOUDS BELOW 12,000 FEET WITH NO
SIGNIFICANT WEATHER AND OR OBSTRUCTIONS TO VISIBILITY.


SDZ038>040-050-052>070-172100-
SOUTHEAST SOUTH DAKOTA

CITY           SKY/WX    TMP DP  RH WIND       PRES   REMARKS
BROOKINGS      SUNNY     26  20  77 W8        29.97F WCI  18
CHAMBERLAIN    SUNNY     37  22  54 S3        29.97F
HURON          CLOUDY    26  18  71 S7        29.99F WCI  18
MADISON          N/A     25  25 100 W10         N/A  WCI  15
MITCHELL       SUNNY     34  24  67 W6        30.02F WCI  29
SIOUX FALLS    SUNNY     30  22  72 W8        30.01F WCI  22
WINNER         FAIR      49  22  34 SW9       29.95F
YANKTON        SUNNY     30  27  86 CALM      30.04S
$$

MNZ071-072-080-081-089-090-097-098-172100-
SOUTHWEST MINNESOTA

CITY           SKY/WX    TMP DP  RH WIND       PRES   REMARKS
FAIRMONT       CLOUDY    31  30  96 NW6       30.00S FOG     WCI  25
JACKSON        CLOUDY    30  30 100 W5        29.99S FOG     WCI  25
LUVERNE        SUNNY     27  21  80 W6        30.02F WCI  20
MARSHALL       SUNNY     31  23  72 W13       29.99S WCI  21
MONTEVIDEO     SUNNY     32  19  59 CALM      30.00F
PIPESTONE      SUNNY     27  23  86 W7        29.99R WCI  19
REDWOOD FALLS  PTSUNNY   27  19  72 W5        29.99F WCI  22
TRACY          SUNNY     33  26  76 SW9       29.98F WCI  25
WINDOM         FOG       30  30 100 SW8       29.98S VSB 3/4 WCI  23
WORTHINGTON    MOSUNNY   29  26  89 W14       29.99S WCI  18
$$

IAZ001>003-012>014-020>022-031-032-NEZ013-014-SDZ071-172100-
NORTHWEST IOWA

CITY           SKY/WX    TMP DP  RH WIND       PRES   REMARKS
CHEROKEE       CLOUDY    29  28  96 W6        30.03F WCI  23
DENISON        CLOUDY    28  28 100 W7        30.02S FOG     WCI  21
ESTHERVILLE    CLOUDY    31  31 100 W12       29.99S FOG     WCI  22
LE MARS        SUNNY     30  27  86 SW7       30.05F WCI  23
ORANGE CITY    MOSUNNY   28  27  93 W6        30.02F WCI  22
SHELDON        MOSUNNY   28  28 100 W10       30.00F WCI  19
SIOUX CITY     SUNNY     33  25  72 W6        30.05F WCI  28
SPENCER        FOG       29  29 100 W10       30.01R VSB 1/4 WCI  20
STORM LAKE     PTSUNNY   28  28 100 W12G17    30.01S FOG     WCI  18
$$

ABBREVIATIONS USED IN REMARKS
   TC - TEMPERATURE IN CELSIUS
  WCI - WIND CHILL INDEX
   HX - HEAT INDEX
  VSB - VISIBILITY




USA.gov is the U.S. government's official web portal to all federal, state and local government web resources and services.